GAOFEN 7

导读

高分七号卫星(GAOFEN 7)是中国自主研制的高分辨率光学遥感卫星,于2019年11月3日在太原卫星发射中心成功发射。作为我国高分专项工程的重要组成部分,它搭载了激光测高仪与双线阵相机,可获取亚米级高分辨率立体影像,在全球地理信息测绘、国土资源调查、智慧城市建设、防灾减灾等领域发挥关键作用,标志着我国民用遥感卫星迈入高分立体测绘新时代。

基本信息
目录编号:
44703
目录名称:
GAOFEN 7
国际标识:
2019-072A
轨道中心:
EARTH
卫星名称:
GAOFEN 7
卫星全名:
--
卫星状态:
在轨 (已飞行2458 天)
发射日期:
2019-11-03 UTC
国别 :
中国 (CN)
星等 :
--
轨道信息
数据来源 国际轨道数据 AOE轨道数据
星历时间 2026-07-27T23:38:34+0800
6小时前
查看轨道信息
2026-07-28T00:00:00+0800
6小时前
查看轨道信息
半长轴 6880.972km 6880.983km
偏心率 0.0016886 0.0017138
轨道倾角 97.570° 97.570°
近地点辐角 265.049° 265.109°
升交点赤经 269.448° 269.463°
平近点角 94.882° 176.285°
近地点 491.215km 491.053km
远地点 514.455km 514.639km
周期 94.675分钟 94.675分钟
每日圈数 15.209963 15.209926
详细信息
使用方式:
暂无
2D轨道图
3D轨道图
轨道高度分析图
轨道倾角分析图
轨道综合分析图
查看轨道综合分析图